Regional Weather Roundup
Issued by NWS

Home | Current Version | Previous Version | Text Only | Print | Product List | Glossary Off
Versions: 1 2 3 4 5 6 7 8 9 10 11 12 13 14 15 16 17 18 19 20 21 22 23 24 25 26 27 28 29 30 31 32 33 34 35 36 37 38 39 40 41 42 43 44 45 46 47 48 49 50

000
ASUS43 KLSX 170207
RWRMO

WEATHER SUMMARY FOR MISSOURI
NATIONAL WEATHER SERVICE SPRINGFIELD MO
900 PM CDT WED APR 16 2014

NOTE: "FAIR" INDICATES FEW OR NO CLOUDS BELOW 12,000 FEET WITH NO
       SIGNIFICANT WEATHER AND/OR OBSTRUCTIONS TO VISIBILITY.
       CURRENT SKY AND/OR WEATHER CONDITIONS ARE NOT AVAILABLE FOR
       CHILLICOTHE AND FARMINGTON.

MOZ001>031-035>038-043-044-053-054-170300-
...NORTHERN AND WESTERN MISSOURI...

CITY           SKY/WX    TMP DP  RH WIND       PRES   REMARKS
KANSAS CTY INT MOCLDY    58  32  37 W13G23    29.94R
KANSAS C DTWN  PTCLDY    60  32  34 S15G21    29.90R
LEE`S SUMMIT   PTCLDY    58  31  35 S17G23    29.92R
ST JOSEPH      MOCLDY    54  36  50 NW16      29.94R
CHILLICOTHE      N/A     59  32  36 S12G21    29.91R
KIRKSVILLE     PTCLDY    51  31  46 S14       29.94R

$$
MOZ066>068-077>081-088>096-101>105-170300-
...SOUTHWEST MISSOURI...

CITY           SKY/WX    TMP DP  RH WIND       PRES   REMARKS
SPRINGFIELD    CLEAR     51  28  41 S8        30.03R
JOPLIN         CLEAR     53  31  42 S8        30.01R

$$
MOZ032>034-039>042-045>050-055>058-069>072-170300-
...CENTRAL MISSOURI...

CITY           SKY/WX    TMP DP  RH WIND       PRES   REMARKS
COLUMBIA       CLEAR     52  27  38 S13       30.02R
JEFFERSON CITY PTCLDY    52  28  39 SE8       30.03R
ROLLA          PTCLDY    48  28  46 S9        30.05R
SEDALIA        CLEAR     53  31  42 S12       29.98R
WHITEMAN AFB   CLEAR     51  32  48 S9        29.96R
OSAGE BEACH    PTCLDY    54  27  35 S10G16    30.05R

$$
MOZ051-052-059>065-170300-
...EAST CENTRAL MISSOURI...

CITY           SKY/WX    TMP DP  RH WIND       PRES   REMARKS
ST LOUIS INTL  MOCLDY    53  25  33 S17       30.08R
SPIRIT OF STL  CLEAR     52  22  30 S8        30.08R
ST CHARLES     CLEAR     50  28  42 S14       30.08R

$$
MOZ072>076-082>087-097>100-106>115-170300-
...SOUTH CENTRAL AND SOUTHEAST MISSOURI...

CITY           SKY/WX    TMP DP  RH WIND       PRES   REMARKS
CAPE GIRARDEAU PTCLDY    46  37  71 S3        30.14R
FARMINGTON     CLEAR     46  27  46 S9        30.12R
POPLAR BLUFF   PTCLDY    50  34  54 CALM      30.13R
WEST PLAINS    CLEAR     46  28  49 SE7       30.08R

$$



USA.gov is the U.S. government's official web portal to all federal, state and local government web resources and services.